TimeEDT,TemperatureF,Dew PointF,Humidity,Sea Level PressureIn,VisibilityMPH,Wind Direction,Wind SpeedMPH,Gust SpeedMPH,PrecipitationIn,Events,Conditions,WindDirDegrees,DateUTC
12:15 AM,35.1,33.8,95,30.00,4.0,North,4.6,-,N/A,,Overcast,360,2013-04-09 04:15:00
12:36 AM,35.1,33.8,95,30.01,2.5,NNW,3.5,-,N/A,Snow,Light Snow,340,2013-04-09 04:36:00
12:56 AM,34.9,33.8,96,30.02,3.0,NNW,3.5,-,N/A,,Overcast,330,2013-04-09 04:56:00
1:15 AM,34.9,33.8,96,30.02,2.0,North,3.5,-,N/A,,Overcast,350,2013-04-09 05:15:00
1:36 AM,35.1,33.8,95,30.03,2.5,NNW,4.6,-,N/A,,Overcast,340,2013-04-09 05:36:00
1:55 AM,35.2,34.0,95,30.03,3.0,North,3.5,-,N/A,,Overcast,350,2013-04-09 05:55:00
2:15 AM,35.6,34.2,94,30.03,4.0,North,4.6,-,N/A,,Overcast,360,2013-04-09 06:15:00
2:36 AM,35.6,34.2,94,30.03,3.0,North,3.5,-,N/A,,Overcast,10,2013-04-09 06:36:00
2:55 AM,35.4,34.2,95,30.02,2.0,North,3.5,-,N/A,,Overcast,10,2013-04-09 06:55:00
3:16 AM,35.6,34.2,94,30.03,3.0,Calm,Calm,-,N/A,,Overcast,0,2013-04-09 07:16:00
3:36 AM,35.1,33.8,95,30.03,1.8,Calm,Calm,-,N/A,,Overcast,0,2013-04-09 07:36:00
3:55 AM,35.2,34.0,95,30.03,1.8,Calm,Calm,-,N/A,,Overcast,0,2013-04-09 07:55:00
4:16 AM,35.4,34.2,95,30.03,2.5,Calm,Calm,-,N/A,,Overcast,0,2013-04-09 08:16:00
4:36 AM,35.1,33.8,95,30.04,3.0,Calm,Calm,-,N/A,,Overcast,0,2013-04-09 08:36:00
4:55 AM,35.1,33.8,95,30.04,3.0,Calm,Calm,-,N/A,,Overcast,0,2013-04-09 08:55:00
5:16 AM,34.9,33.8,96,30.04,2.5,Calm,Calm,-,N/A,,Overcast,0,2013-04-09 09:16:00
5:36 AM,34.7,33.4,95,30.04,1.5,Calm,Calm,-,N/A,,Overcast,0,2013-04-09 09:36:00
5:55 AM,34.7,33.6,96,30.04,2.5,Calm,Calm,-,N/A,,Overcast,0,2013-04-09 09:55:00
6:16 AM,34.9,33.8,96,30.03,2.0,Calm,Calm,-,N/A,,Overcast,0,2013-04-09 10:16:00
6:36 AM,34.9,33.8,96,30.04,3.0,Calm,Calm,-,N/A,,Overcast,0,2013-04-09 10:36:00
6:55 AM,34.7,33.8,97,30.05,2.5,Calm,Calm,-,N/A,,Overcast,0,2013-04-09 10:55:00
7:16 AM,34.9,33.8,96,30.06,1.5,SW,3.5,-,N/A,,Overcast,230,2013-04-09 11:16:00
7:36 AM,34.9,33.8,96,30.08,1.5,SW,4.6,-,N/A,,Overcast,220,2013-04-09 11:36:00
7:55 AM,35.1,34.0,96,30.08,1.8,Calm,Calm,-,N/A,,Overcast,0,2013-04-09 11:55:00
8:16 AM,35.6,34.2,94,30.08,1.8,Calm,Calm,-,N/A,,Overcast,0,2013-04-09 12:16:00
8:36 AM,35.8,34.7,96,30.08,2.5,Calm,Calm,-,N/A,,Overcast,0,2013-04-09 12:36:00
8:55 AM,36.5,35.1,95,30.08,4.0,Calm,Calm,-,N/A,,Overcast,0,2013-04-09 12:55:00
9:16 AM,36.7,35.6,96,30.07,7.0,Calm,Calm,-,N/A,,Overcast,0,2013-04-09 13:16:00
9:36 AM,38.3,36.7,94,30.05,10.0,Calm,Calm,-,N/A,,Overcast,0,2013-04-09 13:36:00
9:55 AM,39.0,35.8,88,30.07,10.0,Calm,Calm,-,N/A,,Overcast,0,2013-04-09 13:55:00
10:16 AM,37.6,35.6,93,30.06,7.0,Calm,Calm,-,N/A,,Overcast,0,2013-04-09 14:16:00
10:36 AM,38.5,36.5,93,30.07,10.0,Calm,Calm,-,N/A,,Overcast,0,2013-04-09 14:36:00
10:55 AM,38.3,36.5,93,30.07,10.0,Calm,Calm,-,N/A,,Overcast,0,2013-04-09 14:55:00
11:16 AM,39.2,36.5,90,30.06,10.0,Calm,Calm,-,N/A,,Overcast,0,2013-04-09 15:16:00
11:36 AM,40.1,36.0,85,30.07,10.0,Calm,Calm,-,N/A,,Overcast,0,2013-04-09 15:36:00
11:55 AM,40.3,36.0,85,30.06,10.0,Calm,Calm,-,N/A,,Overcast,0,2013-04-09 15:55:00
12:16 PM,40.6,35.8,83,30.06,10.0,Calm,Calm,-,N/A,,Overcast,0,2013-04-09 16:16:00
12:36 PM,40.1,34.7,81,30.06,10.0,Calm,Calm,-,N/A,,Overcast,0,2013-04-09 16:36:00
12:55 PM,40.3,35.4,83,30.06,10.0,Calm,Calm,-,N/A,,Overcast,0,2013-04-09 16:55:00
1:16 PM,41.2,36.1,82,30.06,10.0,Calm,Calm,-,N/A,,Overcast,0,2013-04-09 17:16:00
1:35 PM,41.0,36.1,83,30.07,10.0,NW,3.5,-,N/A,,Overcast,310,2013-04-09 17:35:00
1:55 PM,41.9,36.5,81,30.05,10.0,North,3.5,-,N/A,,Overcast,360,2013-04-09 17:55:00
2:16 PM,41.4,36.1,82,30.06,10.0,Calm,Calm,-,N/A,,Overcast,0,2013-04-09 18:16:00
2:36 PM,39.9,35.1,83,30.06,10.0,Calm,Calm,-,N/A,,Overcast,0,2013-04-09 18:36:00
2:56 PM,40.3,35.6,83,30.06,10.0,Calm,Calm,-,N/A,,Overcast,0,2013-04-09 18:56:00
3:16 PM,40.1,35.2,83,30.05,10.0,Calm,Calm,-,N/A,,Overcast,0,2013-04-09 19:16:00
3:35 PM,39.7,34.9,83,30.05,10.0,Calm,Calm,-,N/A,,Overcast,0,2013-04-09 19:35:00
3:56 PM,40.3,35.8,84,30.04,10.0,North,4.6,-,N/A,,Overcast,350,2013-04-09 19:56:00
4:16 PM,40.1,35.6,84,30.05,10.0,North,8.1,-,N/A,,Overcast,10,2013-04-09 20:16:00
4:35 PM,39.2,35.1,85,30.05,10.0,North,10.4,-,N/A,,Overcast,360,2013-04-09 20:35:00
4:56 PM,38.7,35.1,87,30.05,10.0,North,9.2,-,N/A,,Overcast,360,2013-04-09 20:56:00
5:16 PM,38.8,35.1,86,30.04,10.0,North,8.1,-,N/A,,Overcast,360,2013-04-09 21:16:00
5:35 PM,38.7,35.1,87,30.05,10.0,North,5.8,-,N/A,,Overcast,360,2013-04-09 21:35:00
5:56 PM,38.3,34.7,87,30.05,10.0,North,6.9,-,N/A,,Overcast,360,2013-04-09 21:56:00
6:16 PM,38.3,34.7,87,30.05,10.0,North,6.9,-,N/A,,Overcast,350,2013-04-09 22:16:00
6:35 PM,38.3,34.3,86,30.06,10.0,North,6.9,-,N/A,,Overcast,350,2013-04-09 22:35:00
6:56 PM,37.9,34.3,87,30.05,10.0,North,6.9,-,N/A,,Overcast,360,2013-04-09 22:56:00
7:16 PM,37.9,33.8,85,30.05,10.0,North,9.2,-,N/A,,Overcast,360,2013-04-09 23:16:00
7:35 PM,37.6,34.2,87,30.05,10.0,North,6.9,-,N/A,,Overcast,360,2013-04-09 23:35:00
7:56 PM,37.4,34.0,87,30.06,10.0,North,5.8,-,N/A,,Overcast,360,2013-04-09 23:56:00
8:16 PM,37.4,33.8,87,30.06,10.0,North,8.1,-,N/A,,Overcast,360,2013-04-10 00:16:00
8:35 PM,36.9,33.8,89,30.07,10.0,North,4.6,-,N/A,,Overcast,360,2013-04-10 00:35:00
8:56 PM,36.7,33.8,89,30.08,10.0,North,5.8,-,N/A,,Overcast,360,2013-04-10 00:56:00
9:16 PM,36.5,33.8,90,30.09,10.0,North,5.8,-,N/A,,Overcast,350,2013-04-10 01:16:00
9:35 PM,36.5,33.1,87,30.09,10.0,NNW,8.1,-,N/A,,Overcast,340,2013-04-10 01:35:00
9:56 PM,36.0,32.0,86,30.10,10.0,NNW,8.1,-,N/A,,Overcast,330,2013-04-10 01:56:00
10:16 PM,34.9,31.6,88,30.10,10.0,North,9.2,-,N/A,,Mostly Cloudy,350,2013-04-10 02:16:00
10:56 PM,34.7,32.0,90,30.09,10.0,North,9.2,19.6,N/A,,Overcast,360,2013-04-10 02:56:00
11:16 PM,33.8,31.8,92,30.09,10.0,North,8.1,-,N/A,,Scattered Clouds,350,2013-04-10 03:16:00
11:35 PM,33.1,31.5,94,30.08,10.0,North,6.9,-,N/A,,Scattered Clouds,360,2013-04-10 03:35:00
11:56 PM,33.8,32.0,93,30.08,10.0,North,6.9,-,N/A,,Overcast,10,2013-04-10 03:56:00